Location: Cuiabá
(15.6014°S, 56.0979°W)
Time: 10:01:18
(UTC-04:00)

Hubble Space Telescope - Visible Passes

Search period start: 30 November 2022 00:00
Search period end: 10 December 2022 00:00
Orbit: 530 x 534 km, 28.5° (Epoch: 29 November)

Date Brightness Start Highest point End Pass type
(mag) Time Alt. Az. Time Alt. Az. Time Alt. Az.
30 Nov 1.6 04:06:19 22° WNW 04:07:58 29° NNW 04:11:32 10° NNE visible
30 Nov 1.6 19:23:53 10° W 19:27:53 49° SSW 19:30:45 18° SE visible
01 Dec 2.1 03:55:45 22° NNW 03:55:45 22° NNW 03:58:31 10° NNE visible
01 Dec 2.1 19:11:26 10° W 19:15:19 39° SSW 19:19:12 10° SE visible
01 Dec 3.9 20:54:14 10° SW 20:54:54 12° SW 20:54:54 12° SW visible
02 Dec 3.1 03:45:11 10° N 03:45:11 10° N 03:45:19 10° N visible
02 Dec 2.5 18:59:02 10° W 19:02:45 32° SSW 19:06:29 10° SE visible
02 Dec 3.7 20:41:59 10° SW 20:43:34 14° SSW 20:43:34 14° SSW visible
03 Dec 2.8 18:46:40 10° WSW 18:50:11 27° SSW 18:53:43 10° SE visible
03 Dec 3.5 20:29:41 10° SW 20:31:54 14° S 20:32:01 14° S visible
04 Dec 3.0 18:34:20 10° WSW 18:37:39 23° SSW 18:40:58 10° SE visible
04 Dec 3.5 20:17:21 10° SSW 20:19:26 13° S 20:20:18 13° S visible
05 Dec 3.2 18:22:03 10° WSW 18:25:07 20° SSW 18:28:12 10° SE visible
05 Dec 3.4 20:04:56 10° SSW 20:06:58 13° S 20:08:27 11° SSE visible
06 Dec 3.4 19:52:25 10° SSW 19:54:28 13° S 19:56:31 10° SSE visible
07 Dec 3.4 19:39:50 10° SSW 19:42:00 14° S 19:44:09 10° SE visible
08 Dec 3.3 19:27:11 10° SSW 19:29:30 14° S 19:31:49 10° SE visible
08 Dec 4.1 21:07:32 10° SW 21:07:38 10° SW 21:07:38 10° SW visible
09 Dec 3.2 19:14:29 10° SSW 19:17:00 15° S 19:19:30 10° SE visible
09 Dec 3.8 20:54:46 10° SW 20:55:33 14° SW 20:55:33 14° SW visible
